Погода в Полоцке

Погода в Полоцке : погода сейчас, прогноз погоды и архив. Всё, что Вы хотите узнать о погоде в Полоцке!

Хотите узнать прогноз погоды в Полоцке? Тогда Вам сюда: Погода в Полоцке

Поиск расширенной информации на нашем сайте:

Другие новости

Новости СМИ2

Главная страница сайта

Новости сайта

03.07.2017

Напоминаем, что на нашем специализированном сайте Метеоцентр.Азия вы можете получить высокодетализированные автоматические прогнозы погоды по пунктам России, СНГ и мира в авиационном формате (включающие направление и скорость ветра, видимость, явления погоды, количество и форму облачности, нижнюю и верхнюю границу облачности).


Погода в Полоцке - сегодня

Время (UTC), дата Ветер
(°,м/с) 
Видим.   Явления Облачность Т
(°С)
Тd
(°С)
f(%) Тe
(°С)
Pmin
(гПа)
dP
(гПа)
Po
(мм)
O2
(г/м3)
Тmin Tmax R s Состояние
почвы
18 18.06.18 210 (ЮЗ) 10 км    3/0 средняя 
[Ac lent]
+23.8 +13.5 52 +30  1014.4  -0.2  749  275    +27.5       
21 18.06.18 240 (ЮЗ) 10 км    6/0 средняя 
[Ac trans]
+19 +13 68 +26  1015.1  0.3  750  280           
00 19.06.18 290 (З) 10 км    9/0 средняя 
[Ac trans]
+18.7 +14.8 78 +28  1015.8  0.7  750  280           
06 19.06.18 270 (З) 15000 м    10/0 средняя, верхняя 
[Ac trans|Ci ing]
+19.6 +13.9 70 +28  1016.4  0.2  751  279  +16.1         
09 19.06.18 280 (З) 20000 м    9/0 средняя, верхняя 
[Ac trans|Ci ing]
+22.3 +9.5 44 +23  1015.6  -0.6  750  278           
12 19.06.18 260 (З) 20000 м    8/1 1000 м средняя, верхняя 
[Cu hum|Ac trans|Ci]
+24.3 +11.1 43 +27  1013.9  -1.6  749  275           
15 19.06.18 250 (З) 20000 м    9/0 средняя, верхняя 
[Ac trans|Ci ing]
+24.4 +10.4 41 +26  1012  -1.9  748  275           
18 19.06.18 280 (З) 2{10}  20000 м    10/0 средняя, верхняя 
[Ac lent|Ci fib]
+21.6 +11.1 51 +24  1012.2  748  277    +25       
21 19.06.18 280 (З) 10 км    8/5 1000 м кучево-дожд., средняя 
[Cb cap|Ac trans]
+18.8 +11.8 64 +24  1013.4  748  280           
00 20.06.18 260 (З) 10 км    ясно 
+14.9 +9.5 70 +17  1015.1  1.5  749  285           
06 20.06.18 260 (З) 15000 м    8/8 700 м 
[Sc]
+17.2 +11.8 71 +22  1015.2  750  282  +12.9         
09 20.06.18 260 (З) 20000 м    8/8 800 м 
[Sc]
+20.2 +9.5 50 +21  1014.9  -0.1  750  280           
12 20.06.18 280 (З) 20000 м    5/5 1000 м 
[Cu med, cong]
+22.5 +6.8 36 +23  1014.6  -0.1  749  278           
15 20.06.18 290 (З) 4{10}  20000 м    1/0 верхняя 
[Ci ing]
+22.5 +5.6 33 +23  1014.5  -0.2  749  278           
18 20.06.18 260 (З) 2{10}  15000 м    1/0 верхняя 
[Ci ing]
+21 +4.6 34 +21  1014.3  -0.3  749  280    +22.7       
21 20.06.18 250 (З) 10 км    3/0 верхняя 
[Ci ing]
+15.8 +7.1 56 +17  1015.1  0.5  749  284           
00 21.06.18 240 (ЮЗ) 10 км    ясно 
+13.8 +7.3 65 +15  1015.4  0.2  750  286           
09 21.06.18 230 (ЮЗ) 20000 м    3/0 средняя 
[Ac trans]
+23.7 +12.3 49 +28  1012.2  -1.5  748  275           
12 21.06.18 230 (ЮЗ) 6-12{12}  20000 м    6/6 1020 м 
[Cu med, cong]
+26.1 +10.4 37 +28  1009.8  -2.3  746  273           
18 21.06.18 160 (Ю) 15000 м    8/3 1000 м средняя, верхняя 
[Sc diur, vesp|Ac trans|Ci ing]
+25.3 +13.1 47 +31  1005.8  -2.2  743  271    +27.6       
21 21.06.18 180 (Ю) 10 км    4/0 средняя 
[Ac trans]
+22.1 +12.8 56 +27  1004  -1.9  742  274           
00 22.06.18 180 (Ю) 10 км    9/3 600 м кучево-дожд., средняя, верхняя 
[Cb cap|Ac trans|Ci ing]
+21.2 +12.6 58 +26  1002.1  -1.9  740  274           
03 22.06.18 230 (ЮЗ) 10 км  в посл. час ливневой дождь  9/6 1020 м кучево-дожд., средняя 
[Cb cap|Ac und]
+19.4 +15.3 77 +31  1003  0.8  741  275      0.1     
06 22.06.18 220 (ЮЗ) 10 км  слаб. ливневой дождь  10/10 1140 м кучево-дожд. 
[Cb cap]
+14.5 +10 74 +16  1006.2  2.9  743  282  +14.4    0.1     
12 22.06.18 220 (ЮЗ) 20000 м  {ливн. осадки}  8/4 600 м средняя, верхняя 
[Sc|Ac trans|Ci fib]
+17.9 +8 52 +18  1008.6  1.1  745  280           
Время (UTC), дата Ветер
(°,м/с) 
Видим.   Явления Облачность Т
(°С)
Тd
(°С)
f(%) Тe
(°С)
Pmin
(гПа)
dP
(гПа)
Po
(мм)
O2
(г/м3)
Тmin Tmax R s Состояние
почвы

Для получения пояснительной информации подведите курсор к названию столбца.

ПОГОДА в Полоцке - архив

Всё, что Вы хотите узнать о погоде в Полоцке - удобно и подробно!

Выберите нужную дату (начиная с 1 января 2015* года) и нажмите кнопку "Найти".
Будут отображены архивные сводки погоды по пункту Полоцк, начиная с указанной даты.


Отображать данные в формате CSV (для использования в таблицах Excel)


Внимание! Наш архив погоды предназначен исключительно для личного некоммерческого использования в познавательных целях. Если Вам необходимы официальные справки о состоянии погоды (для производственных, юридических, коммерческих и т.п. целей), обращайтесь в органы Росгидромета.

*Примечание: данная дата относится к архиву по метеостанциям СССР (Россия, СНГ, Балтия).
Архив по метеостанциям Зарубежной Европы и Азии (кроме Китая) хранится 10 дней, по другим регионам земного шара (Китай, Африка, Америка, Австралия, Океания) - 1 день.

Полоцк - район местоположения метеостанции


Название, широта, долгота, высота метеостанции:
Полоцк 55.5°ш. 28.8°д. 133 м над ур. моря [Беларусь]

Дополнительная информация

В oтличие oт бoльшинства пoгoдных сайтoв мы публикуем пoдрoбную метеoинфoрмацию в детальнoм прoфессиoнальнoм фoрмате.

Характеристики температуры и влажнoсти вoздуха измеряются на высoте 2 м в тени вдали oт зданий и деревьев.
Скoрoсть ветра измеряется на высoте 10 м (на урoвне рoста челoвека скoрoсть ветра ниже в 1.5-2 раза). Если метеoстанция нахoдится в гoрoде или в лесу, тo скoрoсть ветра занижена на 2-4 м/с пo сравнению с oткрытым местoм. Скoрoсть ветра над акватoриями крупных рек и oзёр, а также на вершинах хoлмoв на 2-5 м/с выше, чем в oбычных услoвиях.
Атмoсфернoе давление в разных тoчках местнoсти мoжет значительнo oтличаться oт давления на метеoстанции, в зависимoсти oт услoвий рельефа (при пoдъёме на 10 м давление пoнижается примернo на 1 мм рт.ст.).